Torna al catalogo

SL-14 DEB

AttivoPO
NORAD 47081·DEBRIS·🇷🇺 Russia

Lanciato Aug 15, 1991 da Plesetsk Cosmodrome

Loading…

Prossimi Passaggi (prossime 24 ore)

TLE

AggiornatoSource: Space-Track

Epoca: Sep 14, 2026, 07:12 UTC

1 47081U 91056DF  26257.30068978  .00001076  00000-0  17200-2 0  9990
2 47081  82.5852   6.8770 0103911 274.7664  84.1615 13.46191020287066

Traccia SL-14 DEB in tempo reale con AllMySat

Download on the App Store